Hourly Data Report for January 13, 2018

All times are specified in Local Standard Time (LST). Add 1 hour to adjust for Daylight Saving Time where and when it is observed.

PORT HARDY A
BRITISH COLUMBIA

50°40'50.000" N
127°22'00.000" W
21.60 m
1026271
71109
YZT

Download Data

Hourly Data (January 2018)
Hourly Data Report for January 13, 2018
Temp Definition
°C
Dew Point Temp Definition
°C
Rel Hum Definition
%
Wind Dir Definition
10's deg

Wind Spd Definition
km/h
Visibility Definition
km
Stn Press Definition
kPa
Hmdx Definition


Wind Chill Definition


Weather Definition


TIME
00:00 Legend Double Dagger 4.6 2.5 86 11 37 24.1 102.05     LegendNANA
01:00 Legend Double Dagger 4.9 2.5 85 11 33 24.1 102.07     Cloudy
02:00 Legend Double Dagger 5.2 2.8 84 11 31 24.1 102.12     LegendNANA
03:00 Legend Double Dagger 5.7 3.1 83 11 33 24.1 102.20     LegendNANA
04:00 Legend Double Dagger 5.9 3.3 83 11 30 24.1 102.18     Cloudy
05:00 Legend Double Dagger 6.0 3.4 84 12 24 24.1 102.22     LegendNANA
06:00 Legend Double Dagger 6.2 3.7 84 11 30 24.1 102.23     LegendNANA
07:00 Legend Double Dagger 6.0 4.2 88 12 21 24.1 102.23     Rain
08:00 Legend Double Dagger 6.1 4.5 90 12 21 8.1 102.21     Rain,Fog
09:00 Legend Double Dagger 6.4 4.7 89 11 29 24.1 102.20     Rain Showers
10:00 Legend Double Dagger 6.7 4.6 86 12 27 24.1 102.28     Rain Showers
11:00 Legend Double Dagger 7.0 4.7 85 11 30 24.1 102.31     LegendNANA
12:00 Legend Double Dagger 7.6 4.9 83 11 34 24.1 102.29     LegendNANA
13:00 Legend Double Dagger 8.0 5.0 82 11 29 32.2 102.28     Cloudy
14:00 Legend Double Dagger 8.1 5.2 82 11 30 32.2 102.23     LegendNANA
15:00 Legend Double Dagger 8.2 4.9 80 12 28 32.2 102.24     LegendNANA
16:00 Legend Double Dagger 8.1 4.9 80 12 25 32.2 102.22     Mostly Cloudy
17:00 Legend Double Dagger 8.0 4.9 81 11 34 32.2 102.16     LegendNANA
18:00 Legend Double Dagger 8.2 4.9 80 11 35 24.1 102.12     LegendNANA
19:00 Legend Double Dagger 7.8 5.0 82 11 29 24.1 102.08     Mostly Cloudy
20:00 Legend Double Dagger 7.9 5.1 83 11 30 24.1 102.09     LegendNANA
21:00 Legend Double Dagger 8.0 5.2 83 12 23 24.1 102.10     LegendNANA
22:00 Legend Double Dagger 7.8 5.2 84 12 22 24.1 102.08     Mainly Clear
23:00 Legend Double Dagger 8.0 5.4 84 11 33 24.1 102.04     LegendNANA

Notes on Data Quality.

Legend

  • E = Estimated
  • M = Missing
  • NA = Not Available
  • ‡ = Partner data that is not subject to review by the National Climate Archives
Date modified: